Tracking 21607 objects as of 26-Oct-2020
HD Live streaming from Space Station
objects crossing your sky now

COSMOS 2023 (GLONASS)

Track COSMOS 2023 (GLONASS) now!
COSMOS 2023 (GLONASS) is classified as:


NORAD ID: 20025
Int'l Code: 1989-039B
Perigee: 19,088.4 km
Apogee: 19,185.4 km
Inclination: 65.5 °
Period: 675.7 minutes
Semi major axis: 25507 km
RCS: 1.297 m2 (large)
Launch date: May 31, 1989
Source: Commonwealth of Independent States (former USSR) (CIS)
Launch site: TYURATAM MISSILE AND SPACE COMPLEX (TTMTR)
aabbcc
Your satellite tracking list
Your tracking list is empty




NASA's NSSDC Master Catalog

Two Line Element Set (TLE):
1 20025U 89039B   20299.21554646 -.00000097 +00000-0 +00000-0 0  9990
2 20025 065.5224 021.2609 0019024 202.4743 182.3245 02.13103921244347
Source of the keplerian elements: AFSPC